Find Starlink 4458

NORAD ID: 53668 Int'l Des: 2022-105 Owner: SPXS Country: US Constellation: starlink operational
LEOCIRCULARRETROGRADESSO

現在のビュー

3D地球を読み込み中...

About Starlink 4458

Starlink 4458 (NORAD 53668) is a starlink constellation satellite (v1.5) launched Aug 31, 2022 by SPXS of US. It operates in LEO, CIRCULAR, RETROGRADE, SSO orbit with a mass of 300.00 kg.

次回通過

Passes for default location (London). Set your location on the main map for personalized predictions.

高度履歴

Loading altitude history...

軌道要素

1 53668U 22105W 26265.58336806 .00676656 00000-0 11204-1 0 9993
2 53668 97.5007 154.1268 0001479 97.4252 131.0258 15.50078560 5704
Epoch: Sep 22, 2026 • Age: 10 hours

現在のステータス

高度 442.0 km
遠地点 / 近地点 N/A
速度 7.64 km/s
衛星直下点 -68.91°S, 179.14°E
打ち上げ日 Aug 31, 2022
運用期間 4 years
タイプ internet

技術仕様

分類 Payload
質量 300.00 kg
乾燥質量 290.00 kg
長さ 0.20 m
スパン 9.00 m
形状 ? Box + pan
製造者 SPXS
バスタイプ Starlink
フェーズステータス In Orbit
所有者/国 SPXS/US

Most Searched